Weather History for Morgantown, WV

Change the Weather History Date:

Thursday, April 10, 2014

  Actual Average Record
Temperature  
Mean Temperature 54 °F 51 °F  
Max Temperature 74 °F 62 °F 86 °F (2013)
Min Temperature 34 °F 40 °F 14 °F (1985)
Degree Days  
Heating Degree Days 11 14  
Month to date heating degree days 129 158  
Since 1 July heating degree days 5118 4759  
Cooling Degree Days 0 0  
Month to date cooling degree days 0 0  
Year to date cooling degree days 0 2  
Growing Degree Days 4 (Base 50)    
Moisture  
Dew Point 28 °F    
Average Humidity 46    
Maximum Humidity 75    
Minimum Humidity 17    
Precipitation  
Precipitation 0.00 in 0.12 in 1.01 in (1959)
Month to date precipitation 0.87 1.19  
Year to date precipitation 8.80 10.25  
Sea Level Pressure  
Sea Level Pressure 30.05 in    
Wind  
Wind Speed 7 mph (SSW)    
Max Wind Speed 18 mph    
Max Gust Speed 29 mph    
Visibility 10 miles    
Events      
T = Trace of Precipitation, MM = Missing Value Source: NWS Daily Summary

Daily Weather History Graph

Daily Weather History Graph

Search for Another Location

Airport:

Trip Planner

Search our weather history database for the weather conditions in past years. The results will help you decide how hot, cold, wet, or windy it might be!

Date:

Astronomy

Apr. 10, 2014 Rise Set
Actual Time 6:49 AM EDT 7:52 PM EDT
Civil Twilight 6:22 AM EDT 8:20 PM EDT
Nautical Twilight 5:49 AM EDT 8:53 PM EDT
Astronomical Twilight 5:15 AM EDT 9:27 PM EDT
Moon 3:35 PM EDT (4/10) 4:10 AM EDT (4/10)
Length of Visible Light 13h 58m
Length of Day
13h 02m
Waxing Gibbous, 79% of the Moon is Illuminated
Apr 10
Waxing Gibbous
Apr 15
Full
Apr 22
Last Quarter
Apr 29
New
May 6
First Quarter

Hourly Weather History & Observations

Time (EDT) Temp. Windchill Dew Point Humidity Pressure Visibility Wind Dir Wind Speed Gust Speed Precip Events Conditions
12:53 AM 37.9 °F - 28.9 °F 70% 30.10 in 10.0 mi Calm Calm - N/A   Clear
1:53 AM 37.9 °F - 28.9 °F 70% 30.09 in 10.0 mi Calm Calm - N/A   Clear
2:53 AM 35.1 °F 32.2 °F 28.9 °F 78% 30.09 in 10.0 mi South 3.5 mph - N/A   Clear
3:53 AM 36.0 °F - 28.9 °F 76% 30.09 in 10.0 mi Calm Calm - N/A   Clear
4:53 AM 36.0 °F - 28.9 °F 76% 30.10 in 10.0 mi Calm Calm - N/A   Clear
5:53 AM 37.0 °F 34.5 °F 28.0 °F 70% 30.11 in 10.0 mi SSW 3.5 mph - N/A   Clear
6:53 AM 39.9 °F 36.7 °F 28.0 °F 63% 30.13 in 10.0 mi SSW 4.6 mph - N/A   Clear
7:53 AM 44.1 °F 42.5 °F 28.9 °F 55% 30.15 in 10.0 mi SSW 3.5 mph - N/A   Clear
8:53 AM 51.1 °F - 28.9 °F 43% 30.15 in 10.0 mi Variable 5.8 mph - N/A   Clear
9:53 AM 55.9 °F - 28.9 °F 36% 30.14 in 10.0 mi SW 10.4 mph 18.4 mph N/A   Clear
10:53 AM 60.1 °F - 30.9 °F 33% 30.12 in 10.0 mi SW 6.9 mph 17.3 mph N/A   Clear
11:53 AM 63.0 °F - 30.9 °F 30% 30.11 in 10.0 mi South 8.1 mph 19.6 mph N/A   Clear
12:53 PM 63.0 °F - 28.0 °F 27% 30.07 in 10.0 mi SSW 16.1 mph 27.6 mph N/A   Clear
1:53 PM 66.0 °F - 27.0 °F 23% 30.04 in 10.0 mi South 16.1 mph 25.3 mph N/A   Clear
2:53 PM 68.0 °F - 28.0 °F 22% 30.02 in - SW 11.5 mph 21.9 mph N/A   Clear
3:20 PM 69.1 °F - 28.9 °F 22% 29.99 in 10.0 mi SSW 15.0 mph 23.0 mph N/A   Partly Cloudy
3:53 PM 73.0 °F - 27.0 °F 18% 29.98 in 10.0 mi SSW 11.5 mph 25.3 mph N/A   Clear
4:53 PM 72.0 °F - 26.1 °F 18% 29.94 in 10.0 mi SW 15.0 mph 23.0 mph N/A   Clear
7:53 PM 71.1 °F - 25.0 °F 18% 29.91 in 10.0 mi SSW 8.1 mph - N/A   Clear
8:53 PM 69.1 °F - 26.1 °F 20% 29.92 in 10.0 mi SSW 5.8 mph - N/A   Clear
9:53 PM 69.1 °F - 26.1 °F 20% 29.95 in 10.0 mi SW 8.1 mph - N/A   Clear
10:53 PM 68.0 °F - 27.0 °F 21% 29.96 in 10.0 mi SSW 6.9 mph - N/A   Clear
11:53 PM 68.0 °F - 28.0 °F 22% 29.96 in 10.0 mi Variable 6.9 mph - N/A   Clear